Location: Rotheul
(50.2849°N, 11.2349°E)
Time: 11:20:35
(UTC+02:00)

ISS - Pass Details

Date: 19 May 2018
Orbit: 402 x 407 km, 51.6° (Epoch: 27 May)

Event Time Altitude Azimuth Distance (km) Brightness Sun altitude
Rises 04:04:01 0° 286° (WNW) 2,320 -0.2 -10.3°
Reaches altitude 10° 04:06:06 10° 284° (WNW) 1,459 -1.3 -10.1°
Maximum altitude 04:09:21 66° 202° (SSW) 443 -3.9 -9.8°
Drops below altitude 10° 04:12:35 10° 119° (ESE) 1,454 -0.8 -9.4°
Sets 04:14:40 0° 117° (ESE) 2,312 0.2 -9.2°
